Starlink 32648

operational
NORAD ID: 62301 Int'l Des: 2024-239 Owner: SPXS Country: US Constellation: starlink
LEOCIRCULAR

About Starlink 32648

Description loading...

Live Position

Loading 3D Globe...

Upcoming Passes

Altitude History

Altitude vs Time

uPlot chart will show altitude changes over time

Two-Line Element Set

1 62301U 24239A 25352.58439652 .00014985 00000-0 51714-3 0 9999
2 62301 53.1581 198.0566 0000801 85.6393 274.4700 15.30194512 57147
Epoch: Dec 18, 2025 • Age: 7 hours

Current Status

Altitude 475.4 km
Velocity 7.63 km/s
Sub-Earth Point 7.74°N, 32.39°W
Launch Date Dec 13, 2024
Age 1 years
Type internet

Technical Details

Classification Payload
Mass 730.00 kg
Dry Mass 700.00 kg
Total Mass 730.00 kg
Length 0.30 m
Diameter 4.10 m
Span 29.00 m
Shape Box + pan
Manufacturer SPXS
Bus Type Starlink V2M
Phase Status In Orbit
Owner/State SPXS/US

Large Constellations

Loading constellations...